This is the latest recevied weather packets stored in our database for station/object AD6NH. If no packets are shown the sender has not sent any weather packets the latest 10 day(s).
| Time | Temp. | Humidity | Pressure | Rain* | Wind** | Luminosity | Snow |
|---|---|---|---|---|---|---|---|
| 1778111823 | 22.78° C | 50% | 1016 hPa | 0 mm | - | - | - |
| 1778111223 | 22.78° C | 50% | 1016.1 hPa | 0 mm | - | - | - |
| 1778110623 | 22.78° C | 50% | 1016.1 hPa | 0 mm | - | - | - |
| 1778110023 | 22.78° C | 49% | 1016.1 hPa | 0 mm | - | - | - |
| 1778109423 | 23.33° C | 48% | 1016.1 hPa | 0 mm | - | - | - |
| 1778108823 | 22.22° C | 50% | 1016.3 hPa | 0 mm | - | - | - |
| 1778108223 | 22.78° C | 50% | 1016.5 hPa | 0 mm | - | - | - |
| 1778107623 | 23.33° C | 48% | 1016.5 hPa | 0 mm | - | - | - |
| 1778107023 | 23.33° C | 49% | 1016.6 hPa | 0 mm | - | - | - |
| 1778106423 | 22.78° C | 48% | 1016.6 hPa | 0 mm | - | - | - |
| 1778105823 | 23.33° C | 46% | 1016.8 hPa | 0 mm | - | - | - |
| 1778105223 | 23.89° C | 44% | 1016.9 hPa | 0 mm | - | - | - |
| 1778104623 | 23.89° C | 43% | 1017 hPa | 0 mm | - | - | - |
| 1778104023 | 23.89° C | 43% | 1017.1 hPa | 0 mm | - | - | - |
| 1778103423 | 23.89° C | 44% | 1017.2 hPa | 0 mm | - | - | - |
| 1778102823 | 23.33° C | 45% | 1017.2 hPa | 0 mm | - | - | - |
| 1778102223 | 23.89° C | 44% | 1017.3 hPa | 0 mm | - | - | - |
| 1778101623 | 23.89° C | 45% | 1017.5 hPa | 0 mm | - | - | - |
| 1778101023 | 23.33° C | 46% | 1017.6 hPa | 0 mm | - | - | - |
| 1778100423 | 22.78° C | 47% | 1017.6 hPa | 0 mm | - | - | - |
| 1778099823 | 23.89° C | 45% | 1017.7 hPa | 0 mm | - | - | - |
| 1778099223 | 23.33° C | 47% | 1017.9 hPa | 0 mm | - | - | - |
| 1778098623 | 23.89° C | 46% | 1017.9 hPa | 0 mm | - | - | - |
| 1778098023 | 23.33° C | 48% | 1018.2 hPa | 0 mm | - | - | - |
| 1778097423 | 23.33° C | 47% | 1018.3 hPa | 0 mm | - | - | - |
* Rain latest hour (hover to see other rain measurements)
** Current wind speed in m/s (hover to see current wind gust speed)